KE9DBJ Weather Reports


Display with metric or nautical units.
time (UTC)temp
F
wind
direction
speed
MPH
gust
MPH
rain 1hr
in
rain 24hr
in
rain mn
in
humidity
%
barometer
mb
20260905223527 89 0.0 0.0 0.00 0.00 0.00 66 1010.8
20260905222525 88 177 1.0 2.0 0.00 0.00 0.00 65 1010.9
20260905221517 89 180 0.0 2.0 0.00 0.00 0.00 62 1010.9
20260905220521 91 301 1.0 3.0 0.00 0.00 0.00 57 1010.8
20260905215520 91 277 2.0 4.0 0.00 0.00 0.00 56 1010.7
20260905214518 92 22 3.0 5.0 0.00 0.00 0.00 55 1010.8
20260905213516 92 334 3.0 4.0 0.00 0.00 0.00 55 1010.8
20260905212601 92 304 3.0 5.0 0.00 0.00 0.00 54 1010.9
20260905211525 92 333 3.0 4.0 0.00 0.00 0.00 52 1011.0
20260905210529 94 292 3.0 5.0 0.00 0.00 0.00 50 1011.1
20260905205536 94 328 2.0 5.0 0.00 0.00 0.00 50 1011.2
20260905204520 93 356 2.0 4.0 0.00 0.00 0.00 53 1011.3
20260905203524 94 20 3.0 4.0 0.00 0.00 0.00 50 1011.4
20260905202528 94 320 4.0 6.0 0.00 0.00 0.00 49 1011.4
20260905201533 95 30 4.0 5.0 0.00 0.00 0.00 50 1011.5
20260905200539 95 100 2.0 3.0 0.00 0.00 0.00 49 1011.6
20260905195523 96 319 3.0 5.0 0.00 0.00 0.00 48 1011.7
20260905194548 96 275 3.0 4.0 0.00 0.00 0.00 48 1011.9
20260905193532 95 331 3.0 5.0 0.00 0.00 0.00 49 1012.1
20260905192518 95 35 2.0 4.0 0.00 0.00 0.00 49 1012.2
20260905191522 95 316 3.0 5.0 0.00 0.00 0.00 49 1012.3
20260905190527 95 20 3.0 6.0 0.00 0.00 0.00 49 1012.5
20260905185551 95 291 4.0 7.0 0.00 0.00 0.00 48 1012.5
20260905184538 95 346 3.0 5.0 0.00 0.00 0.00 50 1012.6
20260905183542 95 305 4.0 5.0 0.00 0.00 0.00 48 1012.8
20260905182526 95 293 3.0 5.0 0.00 0.00 0.00 49 1012.8
20260905181550 95 288 4.0 6.0 0.00 0.00 0.00 49 1012.8
20260905180557 94 300 3.0 5.0 0.00 0.00 0.00 50 1012.8
20260905175520 94 302 4.0 5.0 0.00 0.00 0.00 50 1012.9
20260905174525 93 335 3.0 5.0 0.00 0.00 0.00 51 1013.0
20260905173549 93 274 4.0 6.0 0.00 0.00 0.00 52 1013.3
20260905172515 92 301 3.0 5.0 0.00 0.00 0.00 52 1013.4
20260905171520 91 337 2.0 4.0 0.00 0.00 0.00 53 1013.5
20260905170544 91 44 3.0 4.0 0.00 0.00 0.00 53 1013.8
20260905165528 91 309 3.0 4.0 0.00 0.00 0.00 51 1013.8
20260905164515 90 97 3.0 5.0 0.00 0.00 0.00 52 1014.0
20260905163539 90 311 3.0 5.0 0.00 0.00 0.00 54 1014.2
20260905162523 89 333 3.0 5.0 0.00 0.00 0.00 54 1014.1
20260905161521 89 152 3.0 4.0 0.00 0.00 0.00 54 1014.1
20260905160520 89 155 1.0 3.0 0.00 0.00 0.00 54 1014.2
20260905155518 88 50 2.0 4.0 0.00 0.00 0.00 53 1014.0
20260905154516 88 38 2.0 4.0 0.00 0.00 0.00 51 1014.3
20260905153515 87 64 2.0 4.0 0.00 0.00 0.00 52 1014.0
20260905152551 87 129 2.0 3.0 0.00 0.00 0.00 53 1013.8
20260905151517 87 164 3.0 5.0 0.00 0.00 0.00 53 1013.8
20260905150522 85 304 2.0 5.0 0.00 0.00 0.00 55 1013.8
20260905145526 85 94 2.0 3.0 0.00 0.00 0.00 55 1014.0
20260905144530 84 0 1.0 3.0 0.00 0.00 0.00 57 1014.0
20260905143516 83 102 1.0 3.0 0.00 0.00 0.00 60 1014.3
20260905142521 82 123 2.0 4.0 0.00 0.00 0.00 61 1014.5
20260905141525 81 124 2.0 3.0 0.00 0.00 0.00 63 1014.6
20260905140529 80 22 3.0 4.0 0.00 0.00 0.00 66 1014.7
20260905135515 80 144 2.0 4.0 0.00 0.00 0.00 67 1015.0
20260905134520 79 332 3.0 5.0 0.00 0.00 0.00 68 1015.3
20260905133524 77 49 3.0 5.0 0.00 0.00 0.00 74 1015.4
20260905132528 76 29 2.0 3.0 0.00 0.00 0.00 78 1015.5
20260905131552 74 306 1.0 2.0 0.00 0.00 0.00 80 1015.6
20260905130519 74 21 2.0 4.0 0.00 0.00 0.00 78 1015.7
20260905125523 74 110 1.0 3.0 0.00 0.00 0.00 79 1015.8
20260905124527 73 66 2.0 4.0 0.00 0.00 0.00 81 1016.1
20260905123532 73 271 2.0 4.0 0.00 0.00 0.00 80 1016.5
20260905122518 72 208 1.0 3.0 0.00 0.00 0.00 81 1016.4
20260905121522 72 176 2.0 3.0 0.00 0.00 0.00 83 1016.2
20260905120527 72 180 0.0 1.0 0.00 0.00 0.00 84 1015.9
20260905115531 72 0.0 0.0 0.00 0.00 0.00 83 1015.8
20260905114537 73 180 0.0 2.0 0.00 0.00 0.00 82 1015.5
20260905113521 73 66 4.0 7.0 0.00 0.00 0.00 81 1015.5
20260905112606 73 70 5.0 8.0 0.00 0.00 0.00 82 1015.5
20260905111530 73 32 7.0 10.0 0.00 0.00 0.00 82 1015.5
20260905110516 73 80 10.0 15.0 0.00 0.00 0.00 84 1015.5
20260905105520 73 65 10.0 15.0 0.00 0.00 0.00 87 1014.8
20260905104525 71 29 7.0 12.0 0.00 0.00 0.00 92 1012.8
20260905103523 71 0.0 0.0 0.00 0.00 0.00 92 1012.8
20260905102515 71 0.0 0.0 0.00 0.00 0.00 92 1013.2
20260905101519 71 0.0 0.0 0.00 0.00 0.00 92 1013.3
20260905100518 71 0.0 0.0 0.00 0.00 0.00 92 1013.5
20260905095516 71 0.0 0.0 0.00 0.00 0.00 92 1014.0
20260905094532 71 0.0 0.0 0.00 0.00 0.00 92 1013.8
20260905093519 71 0.0 0.0 0.00 0.00 0.00 92 1013.3
20260905092523 71 0.0 0.0 0.00 0.00 0.00 92 1013.3
20260905091527 71 0.0 0.0 0.00 0.00 0.00 92 1013.1
20260905090532 71 0.0 0.0 0.00 0.00 0.00 92 1012.8
20260905085518 71 0.0 0.0 0.00 0.00 0.00 92 1013.1
20260905084522 71 0.0 0.0 0.00 0.00 0.00 92 1013.1
20260905083526 70 0.0 0.0 0.00 0.00 0.00 92 1013.1
20260905082530 70 0.0 0.0 0.00 0.00 0.00 92 1012.9
20260905081516 71 0.0 0.0 0.00 0.00 0.00 92 1012.8
20260905080521 71 0.0 0.0 0.00 0.00 0.00 92 1012.6
20260905075525 71 0.0 0.0 0.00 0.00 0.00 92 1012.5
20260905074529 71 0.0 0.0 0.00 0.00 0.00 92 1012.4
20260905073516 71 0.0 0.0 0.00 0.00 0.00 92 1012.5
20260905072540 71 0.0 0.0 0.00 0.00 0.00 92 1012.6
20260905071524 71 0.0 0.0 0.00 0.00 0.00 92 1012.7
20260905070528 71 0.0 0.0 0.00 0.00 0.00 92 1012.8
20260905065613 71 0.0 0.0 0.00 0.00 0.00 92 1013.0
20260905064519 71 0.0 0.0 0.00 0.00 0.00 92 1013.1
20260905063523 71 0.0 0.0 0.00 0.00 0.00 92 1013.3
20260905062527 71 0.0 0.0 0.00 0.00 0.00 92 1013.4
20260905061532 71 0.0 0.0 0.00 0.00 0.00 92 1013.5
20260905060518 71 0.0 0.0 0.00 0.00 0.00 92 1013.5
20260905055522 71 0.0 0.0 0.00 0.00 0.00 92 1013.8
20260905054546 71 0.0 0.0 0.00 0.00 0.00 92 1013.8
20260905053531 71 0.0 0.0 0.00 0.00 0.00 92 1013.8
20260905052517 72 0.0 0.0 0.00 0.00 0.00 92 1013.9
20260905051541 72 0.0 0.0 0.00 0.00 0.00 92 1014.0
20260905050546 72 0.0 0.0 0.00 0.00 0.00 92 1014.2
20260905045524 72 0.0 0.0 0.00 0.00 0.00 92 1014.3
20260905044537 72 0.0 0.0 0.00 0.00 0.00 92 1014.2
20260905043521 72 0.0 0.0 0.00 0.00 0.00 92 1014.2
20260905042519 72 0.0 0.0 0.00 0.00 0.00 92 1014.2
20260905041517 72 0.0 0.0 0.00 0.00 0.00 92 1014.2
20260905040515 72 0.0 0.0 0.00 0.00 0.00 92 1014.2
20260905035520 72 0.0 0.0 0.00 0.00 0.00 91 1014.2
20260905034544 72 0.0 0.0 0.00 0.00 0.00 91 1014.2
20260905033528 73 0.0 0.0 0.00 0.00 0.00 91 1014.2
20260905032515 73 0.0 0.0 0.00 0.00 0.00 91 1014.2
20260905031519 73 0.0 0.0 0.00 0.00 0.00 91 1014.1
20260905030623 73 0.0 0.0 0.00 0.00 0.00 91 1014.0
20260905025548 73 0.0 0.0 0.00 0.00 0.00 91 1014.0
20260905024532 73 0.0 0.0 0.00 0.00 0.00 91 1014.0
20260905023518 73 0.0 0.0 0.00 0.00 0.00 90 1014.0
20260905022602 74 0.0 0.0 0.00 0.00 0.00 90 1014.0
20260905021546 74 0.0 0.0 0.00 0.00 0.00 89 1014.0
20260905020531 74 0.0 0.0 0.00 0.00 0.00 89 1014.0
20260905015517 74 0.0 0.0 0.00 0.00 0.00 89 1014.0
20260905014522 75 0.0 0.0 0.00 0.00 0.00 88 1014.0
20260905013526 75 0.0 0.0 0.00 0.00 0.00 88 1014.0
20260905012530 75 252 0.0 2.0 0.00 0.00 0.00 88 1013.9
20260905011516 75 0.0 0.0 0.00 0.00 0.00 87 1013.8
20260905010520 76 180 0.0 1.0 0.00 0.00 0.00 87 1013.6
20260905005525 76 0.0 0.0 0.00 0.00 0.00 86 1013.6
20260905004529 77 0.0 0.0 0.00 0.00 0.00 84 1013.5
20260905003515 77 185 2.0 2.0 0.00 0.00 0.00 84 1013.5
20260905002520 77 121 1.0 2.0 0.00 0.00 0.00 83 1013.4
20260905001524 78 0.0 0.0 0.00 0.00 0.00 82 1013.3
20260905000528 78 0.0 0.0 0.00 0.00 0.00 82 1013.3
20260904235532 79 68 0.0 1.0 0.00 0.00 0.00 80 1013.0
20260904234518 80 158 0.0 1.0 0.00 0.00 0.00 80 1013.0
20260904233523 82 88 1.0 3.0 0.00 0.00 0.00 78 1012.8
20260904232527 82 0.0 0.0 0.00 0.00 0.00 73 1012.9
20260904231525 83 70 1.0 4.0 0.00 0.00 0.00 70 1013.0
20260904230518 84 75 1.0 2.0 0.00 0.00 0.00 69 1013.1
20260904225522 85 319 1.0 3.0 0.00 0.00 0.00 67 1013.0
20260904224520 86 85 3.0 4.0 0.00 0.00 0.00 66 1013.3